Home > Weather > Rio Branco > Past weeks

Flag for Brazil Weather for the Past 2 Weeks in Rio Branco, Acre, Brazil

Now
75 °F

Partly cloudy.


Feels Like: 73 °F
Forecast: 75 / 86 °F
Wind: No wind

Location: Rio Branco Airport

Current Time: Feb 7, 2016 at 1:44:49 AM

Latest Report: Feb 7, 2016 at 1:00 AM


Visibility: N/A

Pressure: 29.95 "Hg

Humidity: 100%

Dew point: 75 °F

Location of Rio BrancoLocation

Historic Weather in Rio Branco — Graph

°F

Rio Branco Temperature Yesterday

Maximum temperature yesterday: 82 °F (at 12:00 PM)
Minimum temperature yesterday: 75 °F (at 2:00 AM)
Average temperature yesterday: 78 °F

High & Low Weather Summary for the Past Weeks

 TemperatureHumidityPressure
High95 °F (Jan 23, 3:00 PM)100% (Jan 23, 6:00 AM)29.98 "Hg (Jan 23, 6:00 AM)
Low72 °F (Feb 1, 12:00 AM)49% (Jan 23, 2:00 PM)29.24 "Hg (Jan 27, 8:00 AM)
Average80 °F85%29.84 "Hg
* Reported Midnight between Jan 22 and Jan 23 — Midnight between Feb 6 and Feb 7, Rio Branco, Weather by CustomWeather, © 2016

Note: Actual official high and low records may vary slightly from our data, if they occured in-between our weather recording intervals... More about our weather records

Advertising

Rio Branco Weather History for the Previous 24 Hours

 ConditionsComfort  
Time TempWeatherWind HumidityBarometerVisibility
12:00 AM
Sun, Feb 7
75 °FPartly cloudy.1 mph100%29.95 "HgN/A
11:00 PM
Sat, Feb 6
75 °FPassing clouds.1 mph100%29.98 "HgN/A
10:00 PM75 °FClear.No wind100%29.98 "Hg10 mi
9:00 PM75 °FPassing clouds.2 mph94%29.95 "HgN/A
8:00 PM75 °FPassing clouds.2 mph100%29.89 "HgN/A
7:00 PM77 °FPassing clouds.2 mph94%29.86 "HgN/A
6:00 PM79 °FScattered clouds.3 mph89%29.83 "HgN/A
5:00 PM82 °FScattered clouds.5 mph79%29.83 "HgN/A
4:00 PM81 °FScattered clouds.3 mph84%29.83 "HgN/A
3:00 PM81 °FScattered clouds.5 mph79%29.86 "HgN/A
2:00 PM82 °FPartly sunny.10 mph74%29.92 "HgN/A
1:00 PM81 °FBroken clouds.12 mph79%29.92 "HgN/A
12:00 PM82 °FPartly sunny.9 mph79%29.95 "HgN/A
11:00 AM81 °FPartly sunny.13 mph84%29.98 "HgN/A
10:00 AM81 °FPartly sunny.10 mph84%29.98 "HgN/A
9:00 AM77 °FPartly sunny.5 mph94%29.98 "HgN/A
8:00 AM75 °FPartly sunny.3 mph94%29.98 "HgN/A
7:00 AM75 °FPartly sunny.5 mph94%29.95 "HgN/A
6:00 AM77 °FPassing clouds.3 mph94%29.92 "HgN/A
5:00 AM75 °FPartly cloudy.2 mph100%29.89 "HgN/A
4:00 AM77 °FPassing clouds.6 mph94%29.86 "HgN/A
3:00 AM77 °FPassing clouds.6 mph94%29.86 "HgN/A
2:00 AM75 °FPassing clouds.No wind100%29.86 "HgN/A
1:00 AM79 °FThundershowers. Passing clouds.3 mph89%N/AN/A
Weather by CustomWeather, © 2016

See weather overviewHow to use our weather pages